Location: Unspecified
(0.0000°N, 0.0000°E)
Time: 10:24:51
(UTC+00:00)

Amsat-Oscar-6 - Pass Details

Date: 28 April 2019
Orbit: 1448 x 1455 km, 101.8° (Epoch: 25 May)

Event Time Altitude Azimuth Distance (km) Brightness Sun altitude
Rises 03:16:59 0° 14° (NNE) 4,533 ? -38.7°
Reaches altitude 10° 03:19:45 10° 14° (NNE) 3,557 ? -38.1°
Enters shadow 03:27:07 73° 357° (N) 1,505 ? -36.3°
